星链-32778 (STARLINK-32778)

导读

STARLINK-32778是美国SpaceX公司星链(Starlink)星座的成员,于2025年1月13日发射入轨。作为低轨宽带互联网卫星,它运行在近地轨道,依托星链星座的组网架构,为全球欠发达地区、偏远区域提供高速低延迟宽带服务,助力实现全域网络覆盖,推动星链“直连手机”等新一代服务落地,支撑全球互联基础设施的拓展。

基本信息
目录编号:
62603
目录名称:
STARLINK-32778
国际标识:
2025-008S
轨道中心:
EARTH
卫星名称:
星链-32778
卫星全名:
星链-32778 (STARLINK-32778)
卫星状态:
在轨 (已飞行599 天)
发射日期:
2025-01-13 UTC
国别 :
美国 (US)
星等 :
--
轨道信息
数据来源 国际轨道数据
星历时间: 2026-09-04T00:52:25+0800
17小时前
查看轨道信息
半长轴: 6861.132km
偏心率: 0.0002698
轨道倾角: 43.005°
近地点辐角 293.350°
升交点赤经 353.085°
平近点角 66.707°
近地点: 481.143km
远地点: 484.847km
周期: 94.266分钟
每日圈数: 15.275983
详细信息
固有亮度:
5
最大亮度:
2.5
卫星平台:
Starlink V1.0
覆盖范围:
全球
运营商:
太空探索技术公司
运营商所在国:
美国
制造商(研发单位):
太空探索技术公司
制造商所在国:
美国
使用方式:
暂无
卫星简介
Starlink 计划是 SpaceX 推出的全球卫星互联网项目,通过发射低轨道卫星,为全球尤其是偏远地区提供高速、低延迟的互联网服务。自 2019 年起,Starlink 已部署数千颗卫星,旨在缩小全球数字鸿沟,推动互联网普及。该项目还为军事、航空等行业提供通信支持,带来广泛经济效益。
2D轨道图
3D轨道图
轨道高度分析图
轨道倾角分析图
轨道综合分析图
查看轨道综合分析图